This is the latest recevied weather packets stored in our database for station/object N5SRF. If no packets are shown the sender has not sent any weather packets the latest 10 day(s).
| Time | Temp. | Humidity | Pressure | Rain* | Wind** | Luminosity | Snow |
|---|---|---|---|---|---|---|---|
| 1778075297 | 24.44° C | 97% | 1014.6 hPa | 0 mm | - | 108 W/m² | - |
| 1778074993 | 24.44° C | 98% | 1014.3 hPa | 0 mm | - | 104 W/m² | - |
| 1778074690 | 24.44° C | 98% | 1014.4 hPa | 0 mm | - | 99 W/m² | - |
| 1778074387 | 24.44° C | 98% | 1014.5 hPa | 0 mm | - | 70 W/m² | - |
| 1778074084 | 24.44° C | 98% | 1014.4 hPa | 0 mm | - | 80 W/m² | - |
| 1778073781 | 23.89° C | 98% | 1014.4 hPa | 0 mm | - | 93 W/m² | - |
| 1778073479 | 23.89° C | 98% | 1014.6 hPa | 0 mm | - | 68 W/m² | - |
| 1778073175 | 23.89° C | 98% | 1014.6 hPa | 0 mm | - | 71 W/m² | - |
| 1778072872 | 23.89° C | 99% | 1014.6 hPa | 0 mm | - | 50 W/m² | - |
| 1778072569 | 23.89° C | 99% | 1014.5 hPa | 0 mm | - | 45 W/m² | - |
| 1778072267 | 23.89° C | 99% | 1014.4 hPa | 0 mm | - | 39 W/m² | - |
| 1778071965 | 23.89° C | 99% | 1014.4 hPa | 0 mm | - | 32 W/m² | - |
| 1778071663 | 23.89° C | 99% | 1014.2 hPa | 0 mm | - | 23 W/m² | - |
| 1778071360 | 23.89° C | 99% | 1014.3 hPa | 0 mm | - | 34 W/m² | - |
| 1778071057 | 23.89° C | 99% | 1014.3 hPa | 0 mm | - | 28 W/m² | - |
| 1778070756 | 23.89° C | 99% | 1014.2 hPa | 0 mm | - | 29 W/m² | - |
| 1778070452 | 23.89° C | 99% | 1014.1 hPa | 0 mm | - | 18 W/m² | - |
| 1778070150 | 23.89° C | 99% | 1014.2 hPa | 0 mm | - | 22 W/m² | - |
| 1778069848 | 23.89° C | 99% | 1014.2 hPa | 0 mm | - | 23 W/m² | - |
| 1778069544 | 23.33° C | 99% | 1014 hPa | 0 mm | - | 19 W/m² | - |
| 1778069241 | 23.33° C | 99% | 1014.1 hPa | 0 mm | - | 14 W/m² | - |
| 1778068939 | 23.33° C | 99% | 1013.9 hPa | 0 mm | - | 14 W/m² | - |
| 1778068637 | 23.33° C | 98% | 1014 hPa | 0 mm | - | 10 W/m² | - |
| 1778068335 | 23.33° C | 98% | 1013.8 hPa | 0 mm | - | 7 W/m² | - |
| 1778068032 | 23.33° C | 98% | 1013.8 hPa | 0 mm | - | 4 W/m² | - |
* Rain latest hour (hover to see other rain measurements)
** Current wind speed in m/s (hover to see current wind gust speed)